Date,TemperatureHighF,TemperatureAvgF,TemperatureLowF,DewpointHighF,DewpointAvgF,DewpointLowF,HumidityHigh,HumidityAvg,HumidityLow,PressureMaxIn,PressureMinIn,WindSpeedMaxMPH,WindSpeedAvgMPH,GustSpeedMaxMPH,PrecipitationSumIn
2013-1-1,15.8,3.1,-8.5,7.8,-2.5,-13.0,83,77,67,30.02,29.88,5,0,5,0.00
2013-1-2,25.3,18.2,11.1,17.2,11.5,5.2,84,75,60,29.90,29.80,11,2,11,0.00
2013-1-3,30.0,19.4,10.2,21.3,14.2,5.9,85,80,69,29.97,29.80,8,0,8,0.00
2013-1-4,30.3,18.0,8.4,20.8,12.6,4.3,88,80,67,29.95,29.81,8,2,8,0.00
2013-1-5,36.3,23.0,9.6,30.1,19.0,6.0,90,85,73,29.97,29.63,11,2,11,0.00
2013-1-6,35.9,24.2,11.3,28.7,18.8,7.3,87,80,66,30.03,29.63,22,0,22,0.02
2013-1-7,36.3,23.6,9.6,26.9,18.2,5.7,87,80,68,30.02,29.75,18,5,18,0.00
2013-1-8,35.7,28.0,17.4,30.9,24.0,14.0,91,85,77,29.88,29.65,16,4,16,0.00
2013-1-9,39.7,31.8,21.9,31.1,25.3,17.3,89,77,59,30.21,29.64,13,2,13,0.00
2013-1-10,40.6,29.8,19.2,32.5,25.1,15.8,92,83,68,30.26,29.66,17,3,17,0.22
2013-1-11,43.3,38.1,33.8,41.1,36.2,32.1,96,93,88,29.66,29.36,19,4,19,0.11
2013-1-12,41.3,33.1,21.0,40.2,28.2,14.2,96,82,70,29.80,29.35,16,4,16,0.00
2013-1-13,21.3,16.3,9.6,14.2,8.8,2.2,76,72,63,29.97,29.69,11,1,11,0.00
2013-1-14,23.5,12.2,3.7,13.0,5.6,-0.9,83,75,62,30.19,29.96,9,0,9,0.00
2013-1-15,29.6,17.3,6.6,19.9,11.2,2.2,87,78,59,30.17,29.80,15,3,15,0.00
2013-1-16,34.3,24.8,15.4,27.5,19.0,10.5,89,79,69,29.87,29.49,18,4,18,0.00
2013-1-17,22.8,14.3,6.6,13.3,5.4,0.3,78,68,50,30.16,29.86,12,1,12,0.00
2013-1-18,39.7,25.8,5.7,31.0,20.2,0.5,86,79,71,30.16,29.55,23,5,23,0.00
2013-1-19,47.4,33.8,10.5,36.7,26.8,-0.4,90,76,47,29.74,29.39,20,3,20,0.04
2013-1-20,14.3,7.6,3.0,1.1,-2.7,-5.6,71,62,51,30.07,29.74,14,2,14,0.00
2013-1-21,6.4,-1.0,-8.5,-2.5,-10.5,-16.9,74,64,52,30.04,29.88,13,2,13,0.00
2013-1-22,6.6,-3.8,-11.0,-6.3,-12.4,-17.8,74,67,53,30.11,30.03,9,1,9,0.00
2013-1-23,21.7,8.8,-2.9,12.7,1.7,-9.7,77,73,67,30.20,29.83,7,0,7,0.00
2013-1-24,17.7,5.5,-6.1,7.5,-2.4,-11.7,80,70,55,30.42,30.10,6,0,6,0.00
2013-1-25,26.0,17.2,5.9,18.2,11.2,1.2,83,77,69,30.11,29.69,13,3,13,0.00
2013-1-26,27.3,13.4,-0.2,16.7,7.1,-4.6,84,76,61,30.16,29.96,9,0,9,0.00
2013-1-27,32.5,27.2,21.0,30.0,21.9,13.6,93,81,71,30.09,29.63,18,4,18,0.00
2013-1-28,44.4,34.4,29.4,37.1,31.0,26.6,95,87,70,29.73,29.55,10,1,10,0.14
2013-1-29,48.5,38.8,32.5,47.4,37.4,30.4,96,95,92,29.56,29.28,16,2,16,0.77
2013-1-30,33.9,27.2,14.1,32.9,25.1,11.2,96,92,84,29.35,29.12,12,0,12,0.00
2013-1-31,19.4,9.7,-1.8,11.0,4.1,-6.3,87,78,64,29.87,29.35,0,0,0,0.00
2013-2-1,6.6,-0.4,-8.3,-1.1,-6.5,-12.9,81,75,64,30.05,29.88,0,0,0,0.00
2013-2-2,15.4,6.2,0.0,4.4,-0.4,-5.9,82,74,61,29.89,29.76,0,0,0,0.04
2013-2-3,19.5,9.9,0.5,8.6,3.6,-4.2,84,76,62,29.79,29.68,0,0,0,0.00
2013-2-4,19.2,10.6,2.8,7.9,3.3,-3.9,83,73,56,29.78,29.68,0,0,0,0.00
2013-2-5,31.1,17.6,2.4,22.9,12.0,-3.7,84,79,71,29.88,29.50,0,0,0,0.00
2013-2-6,36.1,18.1,0.6,25.1,12.7,-3.8,90,80,56,30.00,29.83,20,1,20,0.00
2013-2-7,33.6,28.7,20.8,31.4,26.1,18.0,93,90,84,29.90,29.73,22,3,22,0.00
2013-2-8,26.4,17.5,7.5,18.8,12.3,3.1,90,80,65,30.16,29.89,12,1,12,0.10
2013-2-9,26.4,18.0,7.7,23.3,14.4,3.5,88,86,83,30.16,29.85,5,0,5,0.00
2013-2-10,38.8,31.1,20.4,37.4,28.8,17.9,95,91,86,29.86,29.15,25,7,25,0.33
2013-2-11,26.9,26.2,25.5,20.9,20.2,19.5,78,78,77,29.74,29.64,12,3,12,0.00
2013-2-12,31.2,23.8,17.2,21.2,17.3,12.8,86,76,63,29.83,29.60,11,1,11,0.00
2013-2-13,44.4,29.7,16.8,32.7,23.7,13.5,92,79,59,29.61,29.44,9,0,9,0.00
2013-2-14,39.2,33.7,30.7,34.1,30.2,26.2,92,87,77,29.60,29.33,12,0,12,0.10
2013-2-16,4.8,-0.6,-2.5,-6.5,-9.1,-10.2,70,67,59,29.97,29.95,0,0,0,0.00
2013-2-17,23.9,10.1,-5.9,14.5,1.0,-11.8,80,67,52,29.97,29.69,13,2,13,0.00
2013-2-18,47.6,33.0,23.0,33.5,25.4,14.3,90,74,58,29.70,29.22,17,4,17,0.02
2013-2-19,27.3,14.3,4.6,24.8,6.9,-3.3,90,73,55,29.93,29.28,6,0,6,0.00
2013-2-20,28.5,12.2,-0.2,13.1,3.1,-5.7,78,67,51,30.17,29.93,8,1,8,0.02
2013-2-21,25.3,16.8,2.8,20.8,11.7,-3.1,92,80,69,30.22,29.88,18,4,18,0.00
2013-2-22,37.2,26.8,21.3,30.6,23.1,19.0,92,86,75,29.88,29.57,21,4,21,0.00
2013-2-23,42.4,28.1,19.2,28.2,21.1,12.3,88,76,55,29.70,29.58,7,0,7,0.00
2013-2-24,48.5,27.3,13.6,31.6,20.2,9.3,86,76,49,29.91,29.69,6,0,6,0.11
2013-2-25,48.9,30.3,16.7,30.2,22.3,13.1,90,74,47,29.94,29.83,8,0,8,0.00
2013-2-26,36.5,29.5,24.0,28.1,25.0,21.5,92,84,66,29.85,29.47,22,8,22,0.00
2013-2-27,34.8,30.7,27.5,30.5,27.2,24.8,91,87,81,29.59,29.43,14,4,14,0.02
2013-2-28,37.9,30.7,23.0,29.5,24.6,16.4,91,78,67,29.93,29.58,12,2,12,0.02
2013-3-1,35.4,26.3,21.7,20.3,17.7,14.3,83,71,53,30.03,29.92,10,2,10,0.02
2013-3-2,30.7,18.6,6.6,16.0,8.4,1.1,78,65,52,29.99,29.92,4,0,4,0.00
2013-3-3,30.0,13.8,-1.6,14.0,4.7,-6.8,83,68,44,29.94,29.87,22,0,22,0.00
2013-3-4,34.7,21.5,6.2,21.7,13.4,-0.3,84,71,55,29.91,29.84,10,3,10,0.00
2013-3-5,30.9,25.6,19.2,24.9,21.0,15.8,89,82,75,29.90,29.71,11,3,11,0.00
2013-3-6,44.7,31.3,23.5,30.0,23.4,16.9,89,74,53,30.09,29.90,6,0,6,0.12
2013-3-7,39.3,22.9,7.1,23.6,14.5,2.5,85,71,49,30.21,30.08,4,0,4,0.00
2013-3-8,41.3,27.7,16.8,29.1,20.4,11.9,85,75,60,30.24,30.05,11,2,11,0.00
2013-3-9,43.7,34.7,26.0,33.8,29.3,21.6,91,81,66,30.05,29.57,11,4,11,0.35
2013-3-10,39.3,35.4,31.8,37.4,33.5,30.5,95,93,86,29.62,29.45,29,5,29,0.75
2013-3-11,41.7,33.4,26.9,37.0,31.0,23.0,96,91,82,29.53,29.33,10,0,10,0.04
2013-3-12,40.8,29.4,20.4,26.9,21.7,13.4,89,74,54,29.80,29.52,11,1,11,0.00
2013-3-13,35.7,23.7,14.7,15.9,12.0,7.5,84,63,39,30.08,29.80,10,1,10,0.00
2013-3-14,44.9,27.1,11.8,26.1,16.8,6.0,84,67,42,30.08,29.81,8,1,8,0.00
2013-3-15,42.9,31.3,24.9,34.6,27.2,21.3,91,85,71,29.81,29.64,13,2,13,0.02
2013-3-16,42.6,26.2,16.8,24.0,17.4,9.6,91,71,45,29.92,29.63,12,2,12,0.12
2013-3-17,29.1,18.1,8.4,16.5,9.3,2.9,79,69,54,30.08,29.81,10,3,10,0.00
2013-3-18,42.6,27.2,15.9,32.6,21.5,10.9,86,79,64,29.81,29.32,11,2,11,0.07
2013-3-19,32.7,20.4,13.1,13.9,9.3,4.4,80,64,41,29.79,29.43,12,2,12,0.00
2013-3-20,28.2,14.0,5.0,8.4,1.3,-4.5,66,57,41,29.83,29.77,10,2,10,0.00
2013-3-21,36.3,16.9,1.4,16.3,5.7,-4.8,78,62,43,29.83,29.77,7,0,7,0.00
2013-3-22,39.9,20.9,4.8,22.4,11.0,-0.3,83,67,47,29.86,29.80,7,0,7,0.00
2013-3-23,42.4,27.7,12.3,23.6,17.1,7.3,82,66,42,29.94,29.85,8,1,8,0.00
2013-3-24,36.8,29.9,24.9,27.3,22.6,17.6,82,74,65,29.87,29.61,11,3,11,0.00
2013-3-25,43.3,30.3,16.8,27.7,21.4,11.9,86,70,54,29.89,29.63,11,1,11,0.00
2013-3-26,54.5,36.1,26.4,31.2,24.3,20.1,78,63,40,30.03,29.89,6,0,6,0.00
2013-3-27,48.3,35.9,24.0,28.3,21.7,15.3,78,58,37,30.09,30.02,8,0,8,0.00
2013-3-28,48.7,32.5,17.4,26.4,19.4,12.4,85,61,35,30.13,30.06,22,0,22,0.00
2013-3-29,49.2,33.7,19.5,27.9,21.6,14.6,87,63,40,30.12,29.99,4,0,4,0.00
2013-3-30,53.7,39.6,30.0,37.9,29.9,20.6,89,69,53,30.00,29.60,13,3,13,0.04
2013-3-31,48.0,37.4,25.5,37.7,30.9,16.5,93,78,61,29.70,29.49,10,1,10,0.00
2013-4-1,36.1,27.6,17.4,19.7,14.5,10.0,83,59,39,29.95,29.70,10,1,10,0.00
2013-4-2,39.9,28.2,18.5,19.1,14.1,11.1,77,57,36,30.10,29.94,10,1,10,0.00
2013-4-3,44.4,30.7,16.3,22.6,17.1,10.8,87,59,39,30.26,30.03,10,2,10,0.00
2013-4-4,59.3,40.6,27.6,34.5,26.3,18.9,74,58,37,30.03,29.73,22,3,22,0.00
2013-4-5,49.8,35.1,23.7,27.8,23.3,18.5,87,64,39,30.05,29.85,11,2,11,0.00
2013-4-6,58.1,42.9,29.6,46.1,35.3,23.6,89,76,54,29.95,29.31,17,5,17,0.06
2013-4-7,50.7,41.1,33.6,45.0,33.4,29.2,88,75,57,29.75,29.33,14,2,14,0.00
2013-4-8,46.9,39.4,33.2,42.3,35.2,29.0,92,85,80,29.82,29.47,13,2,13,0.26
2013-4-9,37.9,35.7,32.5,36.8,33.8,29.2,96,93,85,29.87,29.70,22,6,22,0.84
2013-4-10,34.3,32.3,30.7,32.2,30.5,28.9,95,93,86,29.95,29.74,18,1,18,0.37
2013-4-11,36.1,33.9,32.5,34.5,31.8,29.1,96,92,86,29.76,29.39,32,11,32,0.37
2013-4-12,41.9,34.8,32.1,36.8,32.4,29.8,97,92,80,29.56,29.33,12,2,12,0.14
2013-4-13,42.4,34.8,30.0,32.4,28.4,24.8,93,78,61,29.78,29.54,11,1,11,0.02
2013-4-14,46.0,34.5,25.1,42.3,30.5,20.9,89,85,80,29.81,29.37,22,8,22,0.08
2013-4-15,64.9,46.5,34.5,50.6,39.1,27.9,95,77,43,29.74,29.36,20,4,20,0.33
2013-4-16,52.3,40.0,27.3,34.9,29.9,23.0,90,69,48,30.10,29.74,13,2,13,0.00
2013-4-17,42.4,37.5,31.8,37.8,33.3,26.4,94,85,71,30.14,29.71,22,7,22,0.38
2013-4-18,50.0,40.9,38.3,48.8,39.6,36.9,97,95,93,29.70,29.09,26,6,26,0.33
2013-4-19,42.0,35.0,26.2,37.2,28.3,18.3,94,77,56,29.69,29.08,14,4,14,0.02
2013-4-20,46.4,33.2,19.5,26.9,18.3,13.8,86,57,31,30.18,29.69,8,1,8,0.00
2013-4-21,52.8,38.6,27.5,35.5,27.4,20.4,82,65,43,30.29,30.03,15,6,15,0.00
2013-4-22,72.6,53.2,41.1,45.7,38.0,30.9,75,58,37,30.03,29.79,14,6,14,0.00
2013-4-23,50.5,43.4,35.7,42.5,34.2,27.1,84,70,58,29.80,29.65,12,2,12,0.00
2013-4-24,57.0,41.5,27.6,31.3,25.4,21.8,82,56,30,29.82,29.75,14,2,14,0.00
2013-4-25,57.0,43.7,33.6,37.4,30.3,23.6,89,61,37,30.06,29.72,13,3,13,0.00
2013-4-26,72.8,54.1,34.3,45.7,37.6,25.1,72,56,36,30.06,29.89,23,7,23,0.00
2013-4-27,73.0,57.8,44.4,53.3,45.6,40.3,90,66,45,30.01,29.81,13,4,13,0.00
2013-4-28,77.1,60.3,44.4,48.2,43.0,37.6,79,56,33,29.82,29.59,10,1,10,0.00
2013-4-29,75.9,61.9,49.8,56.9,51.7,44.7,87,71,47,29.64,29.51,16,3,16,0.00
2013-4-30,87.4,70.7,57.9,64.8,55.1,48.4,91,62,33,29.69,29.46,20,8,20,0.10
2013-5-1,80.2,63.5,48.9,56.6,49.2,39.2,83,61,43,30.07,29.69,14,3,14,0.00
2013-5-2,54.5,45.0,36.6,43.1,35.8,31.7,87,71,56,30.12,30.03,16,5,16,0.09
2013-5-3,45.8,39.5,33.9,44.3,37.4,31.3,95,92,87,30.04,29.82,57,6,57,0.44
2013-5-4,72.6,56.1,41.7,54.5,46.8,39.8,94,74,46,29.88,29.80,14,5,14,0.06
2013-5-5,75.0,59.3,43.8,51.0,45.4,39.9,87,62,39,29.90,29.83,12,4,12,0.00
2013-5-6,77.7,60.9,43.1,50.8,42.2,35.7,82,53,28,29.90,29.80,10,2,10,0.00
2013-5-7,81.3,57.1,48.3,44.3,39.8,37.8,70,55,26,29.86,29.80,9,1,9,0.00
2013-5-8,89.2,75.2,48.5,53.8,49.0,41.5,79,43,23,29.85,29.76,11,2,11,0.00
2013-5-9,58.2,49.4,43.1,49.9,46.3,41.3,94,90,73,29.76,29.73,21,9,21,0.70
2013-5-10,68.3,45.9,38.4,50.0,40.9,37.1,95,84,52,29.81,29.72,21,4,21,0.30
2013-5-11,57.5,50.5,41.3,48.8,34.5,24.4,94,57,38,29.80,29.57,12,4,12,0.02
2013-5-12,67.6,49.9,35.4,31.6,28.0,22.3,76,44,26,29.92,29.84,13,2,13,0.05
2013-5-13,35.4,30.3,28.2,28.5,25.2,23.7,88,81,76,29.94,29.91,5,0,5,0.00
2013-5-14,47.8,47.5,47.4,38.5,37.9,37.6,70,69,69,29.52,29.51,8,5,8,0.00
2013-5-15,93.3,62.1,53.4,48.5,41.3,38.8,65,49,22,29.66,29.48,6,0,6,0.00
2013-5-16,75.0,58.3,48.0,48.9,40.8,34.6,77,54,37,29.83,29.65,13,4,13,0.00
2013-5-17,57.7,54.5,51.9,52.1,43.4,35.1,87,68,44,29.89,29.80,14,5,14,0.34
2013-5-23,64.9,59.8,54.5,37.1,36.4,34.9,48,42,36,30.03,30.01,5,1,5,0.00
2013-5-24,81.8,58.5,48.9,45.4,37.7,34.0,70,48,27,30.16,30.11,8,1,8,0.00
2013-5-25,61.5,59.9,58.2,38.1,37.5,36.8,45,44,42,30.11,30.10,9,7,9,0.00
2013-5-27,59.7,55.6,52.8,51.9,49.2,47.7,83,79,73,29.83,29.77,24,11,24,0.00
2013-5-31,82.0,70.5,66.0,62.0,60.6,59.8,84,72,51,29.52,29.49,15,6,15,0.00
2013-6-1,71.7,67.8,65.3,55.8,53.7,52.6,64,61,57,29.48,29.45,6,0,6,0.00
2013-6-7,78.6,69.9,59.9,56.7,50.0,45.9,67,50,42,29.80,29.73,6,0,6,0.00
2013-6-8,72.3,66.2,60.9,57.5,54.2,51.4,78,66,53,29.81,29.77,7,1,7,0.00
2013-6-9,77.5,68.0,57.7,63.4,56.6,49.8,75,67,61,29.78,29.73,13,6,13,0.00
2013-6-10,82.0,65.7,58.6,66.4,58.6,55.2,90,80,58,29.62,29.60,2,0,2,0.00
2013-6-11,84.5,68.3,58.2,68.1,60.3,55.6,92,78,56,29.69,29.63,2,0,2,0.00
2013-6-12,64.7,64.5,63.6,62.4,61.9,60.4,92,91,89,29.67,29.54,8,3,8,0.33
2013-6-13,55.5,55.0,54.5,53.5,53.0,52.4,94,93,93,29.69,29.66,0,0,0,0.00
2013-6-14,74.4,61.8,50.9,57.7,52.1,47.4,88,72,56,29.92,29.82,7,0,7,0.00
2013-6-15,87.9,85.4,80.4,71.4,70.0,67.7,66,60,57,29.67,29.63,10,2,10,0.00
2013-6-16,61.5,61.0,60.8,59.5,59.0,58.7,93,93,93,29.67,29.66,0,0,0,0.00
2013-6-18,72.5,58.5,51.4,49.1,48.3,47.1,90,74,41,29.90,29.85,8,2,8,0.00
2013-6-19,43.8,43.6,43.5,39.7,39.6,39.5,86,86,85,29.93,29.92,0,0,0,0.00
2013-6-20,59.5,58.4,57.9,46.9,46.2,45.7,64,64,63,29.93,29.92,1,0,1,0.00
2013-6-21,77.7,71.6,67.2,67.2,62.6,58.5,76,73,69,29.86,29.80,7,0,7,1.09
2013-6-22,76.2,72.6,68.3,69.3,67.9,65.9,93,86,79,29.89,29.76,9,2,9,0.10
2013-6-23,87.0,82.3,76.8,72.8,70.9,68.3,76,69,61,29.77,29.69,12,6,12,0.00
2013-6-24,67.6,66.9,66.5,64.8,64.0,63.5,91,91,90,29.76,29.75,2,0,2,0.00
2013-6-25,80.2,69.9,65.8,70.0,65.3,63.2,92,86,71,29.70,29.63,7,1,7,0.15
2013-6-26,67.6,67.2,66.9,65.8,65.2,64.7,94,93,93,29.58,29.55,0,0,0,0.00
2013-6-27,68.0,67.6,67.1,64.6,64.3,64.0,90,89,89,29.59,29.57,0,0,0,0.00
2013-6-28,73.2,66.8,64.2,61.5,60.7,59.8,87,81,66,29.51,29.46,5,0,5,0.06
2013-6-30,88.7,78.7,67.8,56.1,52.2,49.1,57,41,32,29.84,29.77,8,2,8,0.00
2013-7-1,83.4,58.7,52.8,55.7,50.1,48.4,85,76,39,29.93,29.90,6,0,6,0.00
2013-7-2,79.3,65.8,57.3,52.2,49.3,46.0,83,59,31,29.93,29.90,8,3,8,0.00
2013-7-3,68.3,64.6,59.1,60.1,57.5,51.9,80,78,75,29.89,29.83,0,0,0,0.00
2013-7-5,98.6,77.5,63.3,67.6,62.7,59.4,87,63,36,29.84,29.79,7,2,7,0.00
2013-7-6,101.4,89.9,74.4,70.1,68.1,64.1,79,50,36,29.84,29.75,9,2,9,0.00
2013-7-7,92.1,85.0,77.1,75.1,72.6,69.7,84,67,58,29.77,29.76,7,2,8,0.00
2013-7-8,98.2,86.3,75.0,75.6,72.6,69.2,83,65,47,29.77,29.68,10,2,10,1.00
2013-7-9,100.0,78.6,65.8,78.0,70.6,63.7,93,78,48,29.79,29.60,11,2,11,0.84
2013-7-10,95.5,72.0,61.3,68.1,62.1,54.9,92,74,33,29.84,29.63,8,0,8,0.00
2013-7-11,97.7,69.5,55.0,63.8,55.5,51.8,90,68,32,29.91,29.88,6,0,6,0.00
2013-7-12,76.6,65.8,57.0,55.2,53.4,51.5,82,66,47,29.93,29.89,0,0,0,0.00
2013-7-19,104.5,89.8,73.0,75.7,67.4,61.3,68,49,29,29.61,29.54,11,1,11,0.00
2013-7-20,77.7,73.4,69.2,60.5,59.4,57.7,67,62,55,29.75,29.73,10,4,10,0.00
2013-7-21,80.0,69.6,64.0,63.2,60.7,58.1,91,75,49,29.81,29.73,8,1,8,0.55
2013-7-25,81.3,80.6,79.7,64.2,63.9,63.5,58,57,56,29.80,29.79,9,4,9,0.00
2013-7-29,88.5,74.7,62.9,62.1,57.5,53.9,73,56,40,29.97,29.93,4,0,4,0.00
2013-8-6,86.1,84.2,82.9,66.2,65.8,65.2,56,54,51,29.61,29.61,6,1,6,0.00
2013-8-7,80.2,78.6,75.7,63.3,62.6,61.1,61,58,55,29.73,29.71,0,0,0,0.00
2013-8-8,83.4,71.5,61.7,59.7,54.9,49.8,69,57,41,29.82,29.80,7,0,7,0.00
2013-8-9,62.9,60.7,58.8,53.0,51.1,48.6,78,71,66,29.88,29.79,0,0,0,0.00
2013-8-10,58.8,57.1,55.4,51.9,50.9,49.7,82,80,78,29.91,29.88,0,0,0,0.00
2013-8-11,70.3,67.9,64.7,64.3,62.9,60.4,88,84,80,29.93,29.87,4,0,4,0.13
2013-8-12,58.8,58.4,58.2,56.8,56.3,55.9,93,93,92,29.83,29.82,0,0,0,0.00
2013-8-13,69.0,58.4,52.8,50.3,47.6,45.3,78,68,50,29.99,29.92,7,0,7,0.00
2013-8-14,76.4,57.7,45.6,54.6,48.4,41.7,86,73,46,30.01,29.92,0,0,0,0.00
2013-8-15,57.9,55.5,52.5,51.4,50.1,48.4,86,82,79,29.94,29.93,0,0,0,0.00
2013-8-16,83.3,73.3,64.9,60.9,57.2,53.7,68,58,45,29.99,29.97,0,0,0,0.00
2013-8-17,65.8,63.0,61.3,54.5,53.9,53.3,77,72,67,30.00,29.98,0,0,0,0.00
2013-8-18,61.1,60.0,58.4,54.8,53.9,53.0,83,80,77,30.00,29.98,2,0,2,0.00
2013-8-21,93.7,91.9,88.3,74.1,72.4,69.9,57,53,51,29.78,29.71,15,8,15,0.00
2013-8-23,87.8,86.1,82.0,62.3,60.6,58.5,46,42,39,29.96,29.95,8,1,8,0.00
2013-8-30,83.8,80.0,75.5,69.0,67.3,65.1,71,65,61,29.69,29.64,8,2,8,0.00
2013-8-31,80.7,75.0,68.1,66.0,63.8,61.2,80,68,61,29.66,29.62,8,0,8,0.00
2013-9-1,75.5,71.5,66.9,57.2,56.5,55.3,67,60,53,29.62,29.60,0,0,0,0.00
2013-9-4,76.6,76.0,75.3,63.6,63.2,62.8,67,65,63,29.89,29.88,8,5,8,0.00
2013-9-5,78.9,66.3,54.5,56.3,52.0,47.4,77,62,45,30.05,30.02,11,2,11,0.00
2013-9-6,78.6,60.7,52.3,64.4,52.7,46.0,80,75,61,30.04,29.80,6,0,6,0.00
2013-9-7,85.1,77.9,71.2,70.1,68.2,64.9,83,73,60,29.80,29.71,13,2,13,0.00
2013-9-10,90.3,80.3,73.0,65.7,64.6,63.2,74,60,43,29.78,29.69,7,0,7,0.00
2013-9-11,73.0,70.9,69.0,65.0,64.3,63.1,85,80,75,29.81,29.77,0,0,0,0.00
2013-9-13,64.4,62.9,59.9,42.5,41.6,40.7,50,46,43,29.98,29.97,8,1,8,0.00
2013-9-20,71.4,68.7,63.6,58.5,56.3,53.3,69,65,60,29.60,29.57,8,1,8,0.00
2013-9-26,73.5,64.6,58.6,54.5,52.7,50.1,74,66,51,29.88,29.85,8,1,8,0.00
2013-9-28,69.9,68.3,66.9,63.1,62.7,62.3,86,83,77,29.67,29.64,8,5,12,0.06
2013-9-29,71.2,65.9,53.7,56.2,51.3,46.3,94,62,45,29.87,29.80,10,1,10,0.00
2013-10-4,60.4,59.4,58.8,59.0,57.8,57.0,95,95,94,29.81,29.78,11,4,11,0.02
2013-10-12,69.4,54.1,43.8,47.7,40.6,36.1,77,62,45,29.95,29.75,8,1,8,0.00
2013-10-13,46.0,42.3,37.4,38.9,35.8,32.7,84,78,74,30.07,29.95,5,0,5,0.00
2013-10-18,46.5,45.4,44.2,39.7,38.5,37.6,78,77,76,29.70,29.66,7,1,7,0.00
2013-10-25,48.3,47.1,46.2,31.9,30.5,29.4,53,52,52,29.82,29.71,19,8,19,0.00
2013-10-29,43.3,43.1,42.8,37.5,37.5,37.1,81,80,80,29.99,29.99,2,1,2,0.00
2013-11-2,40.8,38.2,37.0,37.2,35.2,34.3,91,89,87,29.91,29.84,0,0,0,0.02
2013-11-8,41.1,39.7,38.3,33.4,33.1,32.5,80,77,74,29.82,29.67,21,6,21,0.00
2013-11-14,45.6,40.3,37.5,31.6,30.3,28.0,74,68,54,29.67,29.64,11,1,11,0.00
2013-11-15,41.5,40.0,38.4,34.2,33.0,31.8,78,76,71,29.68,29.66,12,3,12,0.00
2013-11-23,13.8,10.0,6.4,2.3,0.3,-1.6,72,65,59,30.46,30.44,6,0,6,0.00
2013-11-26,15.6,13.0,10.9,6.1,4.3,3.0,70,68,66,29.98,29.92,2,0,2,0.00
2013-11-29,24.2,23.1,22.2,17.1,16.4,15.8,77,75,74,30.22,30.18,6,0,6,0.00
2013-12-4,45.1,44.1,43.8,44.3,43.3,43.0,97,97,97,29.25,29.20,12,6,12,0.00
2013-12-6,6.0,5.3,4.4,-0.4,-0.9,-1.7,76,75,74,30.25,30.21,2,0,2,0.00
2013-12-9,-3.4,-4.1,-5.0,-9.6,-10.1,-10.8,76,75,74,29.90,29.88,4,1,4,0.00
2013-12-13,14.7,14.2,13.8,8.2,7.6,7.0,75,75,73,30.03,29.99,11,5,11,0.00
2013-12-19,24.6,23.1,21.3,20.7,18.6,16.7,85,83,81,29.78,29.74,16,6,16,0.00
2013-12-20,22.1,21.3,20.8,19.1,18.4,18.0,90,89,87,29.65,29.59,7,0,7,0.00
2013-12-21,27.1,23.5,20.8,24.6,21.1,18.3,93,90,88,29.69,29.56,15,1,15,0.00
2013-12-22,26.4,21.8,16.1,22.2,17.5,12.3,90,83,78,29.89,29.59,12,1,12,0.00
2013-12-23,26.7,14.8,5.5,22.0,10.5,1.3,90,83,73,30.16,29.88,0,0,0,0.00
2013-12-24,8.4,7.5,7.1,4.3,3.1,2.5,83,82,81,30.12,30.04,12,5,12,0.00
2013-12-25,25.5,17.3,8.4,18.6,12.9,4.3,87,83,74,30.04,29.81,12,2,12,0.00
2013-12-26,25.5,17.9,9.1,18.6,12.9,5.5,87,81,71,29.99,29.83,7,0,7,0.00
2013-12-28,34.1,32.4,30.9,30.5,28.8,27.0,87,86,86,29.54,29.51,11,1,11,0.00
2013-12-29,30.7,29.3,28.2,27.0,25.7,24.6,87,86,86,29.51,29.49,0,0,0,0.00
2013-12-30,6.4,1.3,-2.3,-4.9,-7.1,-9.5,77,67,55,29.98,29.93,0,0,0,0.00
2013-12-31,12.5,2.0,-9.5,2.7,-5.0,-16.5,79,72,63,30.14,29.92,22,0,22,0.00
2014-1-1,10.2,2.5,-8.3,-0.7,-5.7,-15.0,73,68,59,30.19,30.08,9,1,9,0.00
2014-1-2,10.7,2.2,-11.0,1.3,-4.9,-17.1,76,72,63,30.18,30.05,10,1,10,0.00